World > North America > United States > Ohio

Hourly Rayland, OH Regional Weather

Feedback E-mail the Weather

Quick WX

Rayland, OH Weather Maps

°F °C°F °C
Rayland Weather Map
UTC Time: 7/7/2022, 04:29
Your Time:

Rayland, OH Regional Weather

Expires:202207070500;;877409
ASUS41 KCLE 070412
RWRCLE
OHIO REGIONAL WEATHER ROUNDUP
NATIONAL WEATHER SERVICE WILMINGTON, OH
1200 AM EDT THU JUL 07 2022

NOTE: "FAIR" INDICATES FEW OR NO CLOUDS BELOW 12,000 FEET WITH NO
SIGNIFICANT WEATHER AND/OR OBSTRUCTIONS TO VISIBILITY.


OHZ036-037-039>041-045>050-054>059-063>069-073>076-082>088-070500-
  CENTRAL AND SOUTHEAST OHIO
  
CITY           SKY/WX    TMP DP  RH WIND       PRES   REMARKS
COLUMBUS       MOCLDY    73  70  90 N7        29.98R                  
OSU AIRPORT    CLOUDY    74  68  81 N5        29.98S                  
BOLTON FIELD   CLOUDY    73  69  89 N8        30.00R                  
RICKENBACK AFB CLOUDY    73  72  95 N5        29.98R                  
NEWARK         CLOUDY    75  67  76 VRB5      29.98S                  
MARION         FAIR      68  66  93 N6        30.01S                  
LANCASTER      CLOUDY    73  72  96 NW5       29.98R                  
ZANESVILLE     CLOUDY    73  69  87 N6        29.97S                  
NEW PHILLY     CLOUDY    72  67  84 VRB6      29.98F                  
$$
  

SKY/WX - Weather  TMP - Temperature  DP - Dew Point  RH - Humidity
WIND - Wind Direction/Speed PRES - Barometric Pressure VSB - Visibility
WCI - Wind Chill Index E13G22 Wind - East Wind 13 mph/Gusts of 22 mph

Trending Headlines

Rayland Radar Loop



Rayland Quick Facts


National Two Day Weather Forecast


E-mail the Rayland Weather Forecast

Voice your opinion or tell us about page issues...